Location: Ferintosh
(52.7647°N, 112.9692°W)
Time: 21:21:11
(UTC+00:00)

A-11 Canister half - Pass Details

Date: 24 May 2024
Orbit: 1524 x 1683 km, 47.3° (Epoch: 19 June)

Event Time Altitude Azimuth Distance (km) Brightness Sun altitude
Rises 04:15:08 0° 220° (SW) 4,675 11.5 -5.3°
Reaches altitude 10° 04:18:22 10° 213° (SSW) 3,706 10.9 -5.6°
Maximum altitude 04:26:50 40° 148° (SSE) 2,162 9.4 -6.5°
Drops below altitude 10° 04:35:31 10° 83° (E) 3,814 10.8 -7.4°
Sets 04:38:54 0° 77° (ENE) 4,825 11.3 -7.7°
